TimeEDT,TemperatureF,Dew PointF,Humidity,Sea Level PressureIn,VisibilityMPH,Wind Direction,Wind SpeedMPH,Gust SpeedMPH,PrecipitationIn,Events,Conditions,WindDirDegrees,DateUTC
12:15 AM,66.2,57.2,73,29.72,10.0,NW,8.1,-,N/A,,Clear,310,2012-10-28 04:15:00
12:35 AM,66.2,57.2,73,29.72,10.0,WNW,9.2,-,N/A,,Clear,300,2012-10-28 04:35:00
12:55 AM,64.4,57.2,77,29.72,10.0,WNW,9.2,-,N/A,,Clear,300,2012-10-28 04:55:00
1:15 AM,66.2,55.4,68,29.72,10.0,NW,8.1,-,N/A,,Clear,310,2012-10-28 05:15:00
1:35 AM,64.4,55.4,73,29.72,10.0,WNW,8.1,-,N/A,,Clear,300,2012-10-28 05:35:00
1:55 AM,66.2,55.4,68,29.72,10.0,NW,8.1,-,N/A,,Clear,310,2012-10-28 05:55:00
2:15 AM,64.4,55.4,73,29.71,10.0,NW,9.2,-,N/A,,Clear,310,2012-10-28 06:15:00
2:35 AM,66.2,55.4,68,29.71,10.0,NW,9.2,-,N/A,,Clear,310,2012-10-28 06:35:00
2:55 AM,62.6,55.4,77,29.71,10.0,NW,8.1,-,N/A,,Clear,310,2012-10-28 06:55:00
3:15 AM,62.6,55.4,77,29.71,10.0,NW,9.2,-,N/A,,Clear,310,2012-10-28 07:15:00
3:35 AM,64.4,55.4,73,29.71,10.0,NW,8.1,-,N/A,,Clear,310,2012-10-28 07:35:00
3:55 AM,62.6,53.6,72,29.71,10.0,NW,8.1,-,N/A,,Clear,310,2012-10-28 07:55:00
4:15 AM,62.6,53.6,72,29.71,10.0,NW,9.2,-,N/A,,Clear,310,2012-10-28 08:15:00
4:35 AM,60.8,53.6,77,29.72,10.0,NW,9.2,-,N/A,,Clear,310,2012-10-28 08:35:00
4:55 AM,60.8,53.6,77,29.72,10.0,NW,8.1,-,N/A,,Clear,310,2012-10-28 08:55:00
5:15 AM,60.8,53.6,77,29.72,10.0,WNW,4.6,-,N/A,,Clear,300,2012-10-28 09:15:00
5:35 AM,60.8,53.6,77,29.73,10.0,WNW,6.9,-,N/A,,Clear,300,2012-10-28 09:35:00
5:55 AM,60.8,51.8,72,29.73,10.0,WNW,8.1,-,N/A,,Clear,300,2012-10-28 09:55:00
6:15 AM,59.0,51.8,77,29.73,10.0,WNW,4.6,-,N/A,,Clear,290,2012-10-28 10:15:00
6:35 AM,59.0,51.8,77,29.74,10.0,NW,8.1,-,N/A,,Clear,310,2012-10-28 10:35:00
6:50 AM,57.2,51.8,82,29.74,10.0,WNW,6.9,-,N/A,,Clear,300,2012-10-28 10:50:00
7:50 AM,57.2,51.8,82,29.75,7.0,NW,5.8,-,N/A,,Clear,310,2012-10-28 11:50:00
8:50 AM,57.2,50.0,77,29.77,10.0,WNW,5.8,-,N/A,,Scattered Clouds,290,2012-10-28 12:50:00
11:50 AM,64.4,51.8,64,29.78,10.0,WNW,8.1,-,N/A,,Partly Cloudy,290,2012-10-28 15:50:00
1:50 PM,69.8,51.8,53,29.73,10.0,WNW,9.2,17.3,N/A,,Clear,290,2012-10-28 17:50:00
2:50 PM,69.8,53.6,56,29.71,10.0,West,12.7,-,N/A,,Mostly Cloudy,270,2012-10-28 18:50:00
3:50 PM,68.0,53.6,60,29.72,10.0,West,10.4,18.4,N/A,,Overcast,279,2012-10-28 19:50:00
4:50 PM,62.6,53.6,72,29.72,10.0,West,11.5,-,N/A,,Overcast,280,2012-10-28 20:50:00
6:50 PM,60.8,51.8,72,29.76,10.0,WNW,9.2,-,N/A,,Overcast,290,2012-10-28 22:50:00
7:55 PM,60.8,51.8,72,29.77,10.0,WNW,8.1,-,N/A,,Overcast,290,2012-10-28 23:55:00
8:15 PM,57.2,51.8,82,29.78,10.0,West,9.2,-,N/A,,Overcast,270,2012-10-29 00:15:00
8:35 PM,60.8,50.0,68,29.78,10.0,WNW,9.2,-,N/A,,Overcast,290,2012-10-29 00:35:00
8:55 PM,59.0,50.0,72,29.80,10.0,NW,11.5,17.3,N/A,,Overcast,320,2012-10-29 00:55:00
9:15 PM,57.2,48.2,72,29.80,10.0,WNW,11.5,-,N/A,,Overcast,290,2012-10-29 01:15:00
9:35 PM,57.2,48.2,72,29.81,10.0,NW,13.8,18.4,N/A,,Overcast,320,2012-10-29 01:35:00
9:55 PM,57.2,46.4,67,29.82,10.0,NNW,12.7,-,N/A,,Overcast,330,2012-10-29 01:55:00
10:15 PM,55.4,48.2,77,29.83,10.0,NW,10.4,18.4,N/A,,Overcast,310,2012-10-29 02:15:00
10:35 PM,55.4,48.2,77,29.83,10.0,NW,11.5,18.4,N/A,,Overcast,310,2012-10-29 02:35:00
10:55 PM,55.4,46.4,72,29.84,10.0,WNW,10.4,-,N/A,,Overcast,300,2012-10-29 02:55:00
11:35 PM,57.2,46.4,67,29.83,10.0,NNW,15.0,-,N/A,,Overcast,330,2012-10-29 03:35:00
11:55 PM,55.4,44.6,67,29.83,10.0,NW,13.8,17.3,N/A,,Overcast,310,2012-10-29 03:55:00